www.pogodaiklimat.ru

Погода и климат >> Архив погоды >> Австралия >> Западная Австралия >> Морава


ПОГОДА в Мораве

  • Прогноз погоды в Мораве
  • Монитор погоды в Мораве

АРХИВ ПОГОДЫ в Мораве

Время (UTC), дата Ветер
(напр.,м/с)
 
Видим.   Явления Облачность Т
(С)
Тd
(С)
f
(%)
Тe
(С)
Тes
(С)
Комфортность P
(гПа)
Po
(гПа)
Тmin
(С)
Tmax
(С)
R
(мм)
R24
(мм)
S
(см)
07 15.08 Ю 3 н/о н/о +16.1 +4.5 46 +16 +16 1023.0 990.6
09 15.08 ЮВ 3 н/о н/о +15.0 +3.2 45 +14 +14 1023.1 990.7
10 15.08 ЮВ 3 н/о н/о +11.7 +4.2 60 +10 +10 1023.3 990.9
12 15.08 Ю 1 н/о н/о +7.7 +5.3 85 +7 +7 1024.7 992.3
13 15.08 ЮВ 1 н/о н/о +6.6 +5.2 91 +5 +5 1024.6 992.2 +16.7
15 15.08 штиль 0 н/о н/о +4.3 +4.2 99 +3 +3 1024.4 992.0
16 15.08 ЮВ 1 н/о н/о +3.7 +3.6 99 +2 +2 1024.3 991.9
18 15.08 З 2 н/о н/о +2.9 +2.9 100 0 0 1024.0 991.6
19 15.08 З 1 н/о н/о +2.5 +2.5 100 +1 +1 1023.5 991.1
21 15.08 штиль 0 н/о н/о +1.3 +1.3 100 -0 -0 1023.1 990.7
22 15.08 З 2 н/о н/о +1.8 +1.8 100 -2 -2 1023.0 990.6
00 16.08 С 2 н/о н/о +6.3 +6.3 100 +4 +4 1023.9 991.5
01 16.08 С 3 н/о н/о +10.4 +6.2 75 +8 +8 1023.8 991.4 +1.0
03 16.08 С 4 н/о н/о +15.6 +3.1 43 +15 +15 1023.1 990.7
04 16.08 СЗ 3 н/о н/о +17.0 +4.7 44 +17 +17 1022.4 990.0
06 16.08 З 6 н/о н/о +18.9 +5.0 40 +19 +19 1020.8 988.5
07 16.08 З 7 н/о н/о +18.1 +5.3 43 +17 +17 1020.4 988.1
09 16.08 З 6 н/о н/о +17.0 +6.5 50 +16 +16 1019.6 987.3
10 16.08 З 6 н/о н/о +15.6 +8.1 61 +14 +14 1019.5 987.2
12 16.08 СЗ 5 н/о н/о +13.1 +11.0 87 +11 +11 1019.5 987.2
13 16.08 СЗ 5 н/о н/о +12.7 +10.2 85 +10 +10 1018.9 986.6 +19.2
15 16.08 ЮЗ 8 н/о н/о +11.3 +11.3 100 +8 +8 1020.7 988.4
16 16.08 ЮЗ 5 н/о в посл. час дождь {туман} н/о +11.4 +11.4 100 +8 +8 1020.7 988.4
18 16.08 ЮЗ 3 н/о н/о +9.4 +7.3 87 +7 +7 1021.6 989.3
19 16.08 ЮЗ 3 н/о {туман} н/о +8.6 +7.1 90 +6 +6 1021.8 989.5
21 16.08 ЮЗ 2 н/о н/о +7.4 +6.5 94 +5 +5 1022.7 990.3
22 16.08 штиль 0 н/о н/о +5.8 +5.8 100 +5 +5 1023.1 990.7
00 17.08 ЮЗ 2 н/о н/о +8.6 +7.4 92 +7 +7 1024.7 992.3
01 17.08 Ю 3 н/о н/о +11.0 +7.1 77 +9 +9 1025.8 993.3 +4.7
03 17.08 Ю 5 н/о н/о +14.2 +5.8 57 +13 +13 1026.5 994.0
04 17.08 Ю 6 н/о н/о +15.0 +5.8 54 +13 +13 1026.7 994.2
06 17.08 Ю 5 н/о н/о +15.5 +5.4 51 +14 +14 1026.1 993.6
07 17.08 Ю 5 н/о н/о +16.2 +4.9 47 +15 +15 1026.2 993.7
09 17.08 Ю 6 н/о н/о +15.1 +5.9 54 +14 +14 1027.2 994.7
10 17.08 Ю 3 н/о н/о +12.6 +5.1 60 +11 +11 1027.8 995.3
12 17.08 Ю 2 н/о н/о +9.2 +5.8 79 +8 +8 1029.5 996.9
13 17.08 Ю 2 н/о н/о +8.8 +5.2 78 +7 +7 1030.2 997.6 +17.0
15 17.08 Ю 2 н/о н/о +6.8 +5.9 94 +5 +5 1030.3 997.7
16 17.08 Ю 1 н/о н/о +5.4 +5.3 99 +4 +4 1030.4 997.8
18 17.08 Ю 2 н/о н/о +5.0 +5.0 100 +2 +2 1030.4 997.8
19 17.08 Ю 2 н/о н/о +4.5 +4.5 100 +2 +2 1030.2 997.6
21 17.08 Ю 1 н/о н/о +3.5 +3.5 100 +2 +2 1030.5 997.9
22 17.08 Ю 1 н/о н/о +2.7 +2.7 100 +1 +1 1031.3 998.7
00 18.08 Ю 1 н/о н/о +6.5 +6.5 100 +6 +6 1033.2 1000.5
01 18.08 В 2 н/о н/о +9.4 +5.9 79 +8 +8 1033.5 1000.8 +1.6
03 18.08 В 6 н/о н/о +13.9 +2.8 47 +12 +12 1033.1 1000.4
04 18.08 В 5 н/о н/о +14.7 +1.9 42 +13 +13 1032.7 1000.0
06 18.08 ЮВ 5 н/о н/о +16.2 +1.1 36 +15 +15 1031.1 998.5
07 18.08 ЮВ 4 н/о н/о +17.1 +1.5 35 +17 +17 1030.7 998.1
09 18.08 ЮВ 5 н/о н/о +15.9 +0.9 36 +15 +15 1030.8 998.2
10 18.08 ЮВ 3 н/о н/о +13.1 +1.1 44 +12 +12 1031.0 998.4
12 18.08 ЮВ 3 н/о н/о +9.8 +3.8 66 +8 +8 1032.4 999.7
13 18.08 ЮВ 3 н/о н/о +9.1 +3.9 70 +7 +7 1032.7 1000.0 +17.6
15 18.08 ЮВ 3 н/о н/о +8.6 +3.8 72 +6 +6 1033.1 1000.4
16 18.08 ЮВ 2 н/о н/о +7.3 +4.1 80 +5 +5 1033.5 1000.8
18 18.08 ЮВ 2 н/о н/о +6.5 +4.2 85 +5 +5 1033.5 1000.8
19 18.08 В 2 н/о н/о +6.1 +4.1 87 +4 +4 1033.4 1000.7
21 18.08 ЮВ 3 н/о н/о +5.6 +3.9 89 +2 +2 1033.7 1001.0
22 18.08 В 3 н/о н/о +5.5 +3.7 88 +2 +2 1034.0 1001.3
00 19.08 В 2 н/о н/о +8.7 +4.3 74 +7 +7 1035.0 1002.2
01 19.08 СВ 6 н/о н/о +12.3 +1.9 49 +10 +10 1035.2 1002.4 +4.1
03 19.08 СВ 6 н/о н/о +17.3 +1.7 35 +17 +17 1034.7 1001.9
04 19.08 СВ 6 н/о н/о +18.0 -0.3 29 +18 +18 1033.8 1001.1
06 19.08 В 5 н/о н/о +19.8 -0.2 26 +20 +20 1031.9 999.2
07 19.08 В 5 н/о н/о +20.3 -1.5 23 +20 +20 1031.1 998.5
09 19.08 В 5 н/о н/о +19.5 -2.2 23 +19 +19 1031.2 998.6
10 19.08 В 3 н/о н/о +15.0 -1.1 33 +15 +15 1031.9 999.2
12 19.08 ЮВ 2 н/о н/о +9.9 +0.3 51 +9 +9 1033.0 1000.3
13 19.08 В 3 н/о н/о +9.4 -0.2 51 +8 +8 1033.3 1000.6 +21.2
15 19.08 В 2 н/о н/о +8.0 0.0 57 +7 +7 1033.3 1000.6
16 19.08 В 1 н/о н/о +6.6 +0.5 65 +6 +6 1033.1 1000.4
18 19.08 штиль 0 н/о н/о +3.8 0.0 76 +3 +3 1033.1 1000.4
19 19.08 СВ 1 н/о н/о +4.2 +0.2 75 +3 +3 1033.0 1000.3
21 19.08 СВ 3 н/о н/о +6.5 0.0 63 +4 +4 1033.0 1000.3
22 19.08 СВ 4 н/о н/о +5.9 -0.4 64 +3 +3 1033.1 1000.4
00 20.08 СВ 3 н/о н/о +10.9 +1.2 51 +9 +9 1034.0 1001.3
01 20.08 СВ 6 н/о н/о +13.9 +1.2 42 +12 +12 1034.1 1001.4 +3.3
03 20.08 СВ 8 н/о н/о +18.8 -0.1 28 +18 +18 1032.9 1000.2
04 20.08 СВ 7 н/о н/о +20.8 -1.1 23 +20 +20 1031.9 999.2
06 20.08 СВ 6 н/о н/о +23.2 -4.0 16 +21 +21 комфорт 1029.5 996.9
07 20.08 В 6 н/о н/о +23.7 -6.3 13 +22 +22 комфорт 1028.9 996.3
09 20.08 В 4 н/о н/о +22.5 -5.4 15 +21 +21 комфорт 1028.2 995.7
10 20.08 В 2 н/о н/о +17.5 -3.8 23 +18 +18 1028.4 995.8
12 20.08 В 1 н/о н/о +10.8 -0.6 45 +11 +11 1029.1 996.5
13 20.08 В 2 н/о н/о +9.9 -0.9 47 +9 +9 1029.3 996.7 +24.2
15 20.08 СВ 3 н/о н/о +11.0 -2.8 38 +10 +10 1028.6 996.0
16 20.08 СВ 3 н/о н/о +10.8 -2.9 38 +9 +9 1028.0 995.5
18 20.08 СВ 4 н/о н/о +10.0 -3.0 40 +8 +8 1027.5 995.0
19 20.08 СВ 3 н/о н/о +8.7 -2.6 45 +7 +7 1027.3 994.8
21 20.08 СВ 3 н/о н/о +8.5 -2.1 47 +6 +6 1026.9 994.4
22 20.08 СВ 3 н/о н/о +7.6 -1.9 51 +5 +5 1027.2 994.7
00 21.08 СВ 2 н/о н/о +10.6 -0.5 46 +10 +10 1027.7 995.2
01 21.08 СВ 6 н/о н/о +15.3 -1.3 32 +14 +14 1027.6 995.1 +6.8
03 21.08 СВ 7 н/о н/о +20.1 -1.7 23 +20 +20 1026.5 994.0
04 21.08 СВ 5 н/о н/о +21.9 -2.0 20 +21 +21 комфорт 1025.5 993.0
06 21.08 СВ 6 н/о н/о +24.3 -4.0 15 +22 +22 комфорт 1023.0 990.6
07 21.08 СВ 5 н/о н/о +25.0 -5.3 13 +23 +23 комфорт 1022.2 989.8
09 21.08 СВ 4 н/о н/о +23.8 -8.4 11 +21 +21 комфорт 1021.6 989.3
10 21.08 СВ 3 н/о н/о +19.5 -5.4 18 +20 +20 1021.7 989.4
12 21.08 СВ 3 н/о н/о +14.1 -4.1 28 +14 +14 1022.6 990.2
13 21.08 СВ 2 н/о н/о +12.3 -3.9 32 +12 +12 1022.7 990.3 +25.4
15 21.08 С 2 н/о н/о +8.6 -2.3 46 +8 +8 1022.1 989.7
16 21.08 С 3 н/о н/о +10.8 -3.7 36 +10 +10 1021.6 989.3
18 21.08 С 2 н/о н/о +4.7 -3.1 57 +3 +3 1020.9 988.6
19 21.08 С 3 н/о н/о +7.9 -3.6 44 +6 +6 1020.4 988.1
21 21.08 С 3 н/о н/о +6.8 -4.0 46 +5 +5 1020.2 987.9
22 21.08 С 2 н/о н/о +4.6 -3.9 54 +2 +2 1020.4 988.1
00 22.08 СВ 2 н/о н/о +10.4 -1.6 43 +9 +9 1020.2 987.9
01 22.08 С 4 н/о н/о +16.2 -3.8 25 +16 +16 1020.6 988.3 +4.3
03 22.08 С 8 н/о н/о +23.3 -6.6 13 +21 +21 комфорт 1019.7 987.4
04 22.08 С 6 н/о н/о +25.3 -7.2 11 +23 +23 комфорт 1019.0 986.7
06 22.08 СЗ 6 н/о н/о +26.4 -7.6 10 +23 +23 комфорт 1017.5 985.3

 

Местоположение метеостанции Морава (Западная Австралия, Австралия): широта -29.20 долгота 116.02 высота над уровнем моря 272 м.

В архиве по умолчанию представлена погода в Мораве за последнюю неделю. Архивные данные за месяц целиком и за предыдущие месяцы, начиная с января 2011 года, Вы можете получить, выбрав интересующий диапазон дат из раскрывающегося списка и нажав кнопку "Ввод!".


*Определитесь, кто Вы:
робот инопланетянин человек

Внимание! Время в таблицах - всемирное. Для получения местного времени необходимо прибавить поправку, которая равна 8 ч.

Смотрите также архив погоды в соседних городах и на ближайших метеорологических станциях:

Погода в Баджингарре (Западная Австралия, Австралия) (134 км)
Погода в Дауоллину (Западная Австралия, Австралия) (136 км)
Погода в Джеральдтоне (Западная Австралия, Австралия) (136 км)
Погода в Маунт Магнет аэропорту (Западная Австралия, Австралия) (214 км)
Погода в Гингине (Западная Австралия, Австралия) (253 км)
Погода в Буллсбрук Пирс (Западная Австралия, Австралия) (275 км)
Погода в Ошен Риф (Западная Австралия, Австралия) (286 км)
Погода в Кандердине (Западная Австралия, Австралия) (293 км)
Погода в Перт Монт-Лоули (Западная Австралия, Австралия) (303 км)
Погода в Перте (Западная Австралия, Австралия) (304 км)

Пояснения к столбцам:

Ветер - указаны скорость ветра в м/с - средняя за 10 мин, порывы в срок и между сроками (в фигурных скобках) и направление, откуда дует ветер: С - северный, СВ - северо-восточный, В - восточный, ЮВ - юго-восточный, Ю - южный, ЮЗ - юго-западный, З - западный, СЗ - северо-западный.
Видимость - горизонтальная дальность видимости в метрах или километрах. При видимости от 1 до 10 км при отсутствии осадков обычно наблюдается дымка, при ухудшении видимости до 1 км и менее - туман. В сухую погоду видимость может ухудшаться дымом, пылью или мглою.
Явления - указаны атмосферные явления, наблюдавшиеся в срок или в последний час перед сроком; фигурными скобками обозначены явления, наблюдавшиеся между сроками (за 1-3 часа до срока); квадратными скобками обозначены град или гололедные отложения с указанием их диаметра в мм.
Облачность - указаны через наклонную черту общая и нижняя облачность в баллах и высота нижней границы облаков в метрах; квадратными скобками обозначены формы облаков: Ci - перистые, Cs - перисто-слоистые, Cc - перисто-кучевые, Ac - высококучевые, As - высокослоистые, Sc - слоисто-кучевые, Ns - слоисто-дождевые, Cu - кучевые, Cb - кучево-дождевые. Подробнее классификацию облаков см. в Атласе облаков (PDF).
T - Температура воздуха - температура, измеренная на высоте 2 м над землей.
Td - Температура точки росы - температура, при понижении до которой содержащийся в воздухе водяной пар достигнет насыщения.
f - Относительная влажность воздуха - влажноcть воздуха, измеренная на высоте 2 м над землей.
Te - Эффективная температура - температура, которую ощущает одетый по сезону человек в тени. Характеристика душности погоды. При расчете учитывается влияние влажности воздуха и скорости ветра на теплоощущения человека.
Tes - Эффективная температура на солнце - температура, которую ощущает человек, с поправкой на солнечный нагрев. Характеристика знойности погоды. Зависит от высоты солнца над горизонтом, облачности и скорости ветра. Ночью, в пасмурную погоду, а также при ветре 12 м/с и более поправка равна нулю.
P - Атмосферное давление - приведенное к уровню моря атмосферное давление.
Po - Атмосферное давление - измеренное на уровне метеостанции атмосферное давление.
Tmin - Минимальная температура - минимум температуры воздуха на высоте 2 м над землей.
Tmax - Максимальная температура - максимум температуры воздуха на высоте 2 м над землей.
R - Количество осадков - Количество выпавших осадков за период времени, мм. При наведении курсора мыши на число - период времени, за который выпало указанное количество осадков.
R24 - Количество осадков - Количество выпавших осадков за 24 часа, мм.
S - Снежный покров - Высота снежного покрова, см. При наведении курсора мыши на число - состояние снежного покрова и степень покрытия местности в баллах.